User: anonymous   Login
Location: Unspecified
(0.0000°N, 0.0000°E)
Time: 07:07:55
(UTC+00:00)
Language:

CORVUS BC2 - Orbit

View from above orbital plane
View from above orbital plane
View from above satellite
View from above satellite

Ground track
Ground track

The orbit data is extracted from the following two-line orbital elements,

1 42846U 17042X   17291.79804553  .00000178  00000-0  23051-4 0  9990
2 42846  97.6075 198.1616 0008157 283.2014  76.8295 14.91685768 14381
Epoch (UTC): 18 October 2017 19:09:11
Eccentricity: 0.0008157
inclination: 97.6075°
perigee height: 587 km
apogee height: 598 km
right ascension of ascending node: 198.1616°
argument of perigee: 283.2014°
revolutions per day: 14.91685768
mean anomaly at epoch: 76.8295°
orbit number at epoch: 1438

The dashed part of the orbit path shows where the satellite is in the earth's shadow,  

DLR